ロヴァシュ第1彗星

93P/Lovas 1 (2007)

English version
Home page
Total 6,336 html files since Dec. 4, 1995
Updated on April 26, 2008

---------------------------------------------------------------------

・ プロフィール

・ 写真集

・ 軌道要素

The following orbital elements are taken from MPC 51824:

Epoch 2007 Dec. 6.0 TT = JDT 2454440.5
T 2007 Dec. 17.3477 TT                                  MPC
q   1.704735             (2000.0)            P               Q
n   0.1071162      Peri.   74.6674      +0.5719015      -0.8170993
a   4.391026       Node   339.9243      +0.6477767      +0.5041679
e   0.611768       Incl.   12.2181      +0.5033032      +0.2795772
P   9.20
From 349 observations 1980-2000, mean residual 0".6.  Nongravitational
     parameters A1 = +0.18, A2 = -0.0048.

・ 星図

・ 光度変化

        m1 =  6.5 + 5 logΔ + 30.0 log r  [ ,0]  (              〜2007年12月17日)
        m1 = 10.0 + 5 logΔ + 15.0 log r  [0, ]  (2007年12月17日〜              )

---------------------------------------------------------------------

軌道要素はMPCのEphemerides and Orbital Elementsに掲載されたものです。
星図は StellaNavigator Ver.2.0 for Windows (アストロアーツ 編著 / アスキー出版局刊) で作成したものです。
光度グラフはComet for Windowsで作成したものです。

---------------------------------------------------------------------

Copyright(C) 1995-2008 Seiichi Yoshida (comet@aerith.net). All rights reserved.